This is the latest recevied weather packets stored in our database for station/object YO8RBY-2. If no packets are shown the sender has not sent any weather packets the latest 10 day(s).
| Time | Temp. | Humidity | Pressure | Rain* | Wind** | Luminosity | Snow |
|---|---|---|---|---|---|---|---|
| 1788109109 | 28.33° C | 45% | 975 hPa | - | - | 0 W/m² | - |
| 1788107284 | 30° C | 41% | 975 hPa | - | - | 0 W/m² | - |
| 1788105460 | 35° C | 32% | 975 hPa | - | - | 0 W/m² | - |
| 1788103636 | 44.44° C | 19% | 974 hPa | - | - | 0 W/m² | - |
| 1788101812 | 31.67° C | 33% | 975 hPa | - | - | 0 W/m² | - |
| 1788099988 | 30.56° C | 32% | 975 hPa | - | - | 0 W/m² | - |
| 1788098164 | 32.78° C | 29% | 974 hPa | - | - | 0 W/m² | - |
| 1788096339 | 35.56° C | 26% | 974 hPa | - | - | 0 W/m² | - |
| 1788094515 | 38.33° C | 23% | 974 hPa | - | - | 0 W/m² | - |
| 1788092691 | 37.22° C | 25% | 975 hPa | - | - | 0 W/m² | - |
| 1788090867 | 35° C | 30% | 975 hPa | - | - | 0 W/m² | - |
| 1788089043 | 35° C | 29% | 975 hPa | - | - | 0 W/m² | - |
| 1788087219 | 34.44° C | 31% | 975 hPa | - | - | 0 W/m² | - |
| 1788085394 | 33.89° C | 31% | 976 hPa | - | - | 0 W/m² | - |
| 1788083570 | 33.33° C | 34% | 976 hPa | - | - | 0 W/m² | - |
| 1788081746 | 34.44° C | 33% | 976 hPa | - | - | 0 W/m² | - |
| 1788079922 | 31.67° C | 37% | 976 hPa | - | - | 0 W/m² | - |
| 1788078098 | 31.11° C | 39% | 976 hPa | - | - | 0 W/m² | - |
| 1788076274 | 30° C | 41% | 976 hPa | - | - | 0 W/m² | - |
| 1788074449 | 27.78° C | 46% | 976 hPa | - | - | 0 W/m² | - |
| 1788072625 | 27.78° C | 46% | 976 hPa | - | - | 0 W/m² | - |
| 1788070801 | 26.11° C | 52% | 976 hPa | - | - | 0 W/m² | - |
| 1788068977 | 24.44° C | 57% | 976 hPa | - | - | 0 W/m² | - |
| 1788067134 | 22.78° C | 61% | 976 hPa | - | - | 0 W/m² | - |
| 1788065301 | 21.67° C | 64% | 976 hPa | - | - | 0 W/m² | - |
* Rain since midnight (hover to see other rain measurements)
** Current wind speed in m/s (hover to see current wind gust speed)